Location: Hungerford
(51.4167°N, 1.5167°W)
Time: 08:45:08
(UTC+00:00)

Cosmos 1048 Rocket - Pass Details

Date: 25 January 2021
Orbit: 744 x 791 km, 74.0° (Epoch: 24 February)

Event Time Altitude Azimuth Distance (km) Brightness Sun altitude
Rises 18:47:36 0° 338° (NNW) 3,198 7.4 -19.0°
Reaches altitude 10° 18:50:05 10° 345° (NNW) 2,271 6.5 -19.4°
Maximum altitude 18:54:58 43° 57° (ENE) 1,054 4.3 -20.2°
Enters shadow 18:55:21 42° 69° (ENE) 1,066 4.3 -20.2°
